Weather Roundup
Issued by NWS Chicago, IL

Home | Current Version | Previous Version | Graphics & Text | Print | Product List | Glossary On
Versions: 1 2 3 4 5 6 7 8 9 10 11 12 13 14 15 16 17 18 19 20 21 22 23 24 25 26 27 28 29 30 31 32 33 34 35 36 37 38 39 40 41 42 43 44 45 46 47 48 49 50
957
NZUS59 KLOT 280103
HRRLOT

CHICAGO AREA WEATHER ROUNDUP
NATIONAL WEATHER SERVICE CHICAGO/ROMEOVILLE IL
800 PM CDT WED JUL 27 2016

NOTE: "FAIR" INDICATES FEW OR NO CLOUDS BELOW 12,000 FEET WITH NO
SIGNIFICANT WEATHER AND/OR OBSTRUCTIONS TO VISIBILITY.

* THESE STATIONS ARE NOT UNDER NWS QUALITY CONTROL. THEY ALSO MAY NOT
  REPORT WEATHER SUCH AS PRECIPITATION OR FOG.

ILZ005-006-012>014-019>023-280200-
NORTHEAST ILLINOIS

CITY           SKY/WX    TMP DP  RH WIND       PRES   REMARKS
OHARE          CLOUDY    83  61  47 E10       29.91S HX  83
MIDWAY         MOCLDY    83  64  52 E8        29.91S HX  84
AURORA         PTCLDY    81  69  67 S3        29.93R HX  84
LANSING*       MOCLDY    78  67  70 S6        29.92S
WAUKEGAN       MOCLDY    76  69  79 N5        29.93R
DUPAGE AIRPORT PTCLDY    81  66  60 W5        29.92R HX  83
WHEELING       MOCLDY    81  63  54 E3        29.93R HX  82
KANKAKEE*      CLEAR     81  69  67 SE3       29.92S HX  83
MORRIS*        PTCLDY    76  72  85 CALM      29.91R
NORTHERLY ISL    N/A     76  70  82 CALM        N/A
$$

WIZ051-052-058>065-066-070>072-280200-
SOUTHEAST WISCONSIN

CITY           SKY/WX    TMP DP  RH WIND       PRES   REMARKS
MILWAUKEE      MOCLDY    74  67  78 NE5       29.94S
KENOSHA*       PTCLDY    75  70  84 NE8       29.95R
RACINE*        CLEAR     73  67  81 CALM      29.96S
BURLINGTON     PTCLDY    75  67  76 E5        29.95R
WAUKESHA       CLEAR     73  63  68 E6        29.96R
$$

INZ001>003-010>013-019-020-280200-
NORTHWEST INDIANA

CITY           SKY/WX    TMP DP  RH WIND       PRES   REMARKS
GARY*          PTCLDY    81  66  61 E6        29.92S HX  83
MICHIGAN CITY* NOT AVBL
RENSSELAER*    NOT AVBL
VALPARAISO     PTCLDY    78  69  73 E3        29.93F HX  80
$$

LMZ740>746-280200-
SOUTHERN LAKE MICHIGAN

STATION/POSITION TIME  SKY/WX   TEMP WIND        PRES    VSBY
                                AIR  DIR/SP/G
                 (UTC)          (F)  (DEG/KT/KT) (MB)    (MI)
HARRISON CRIB    0000            79   90/ 12/ 13   N/A
BURNHAM HARBOR   0100            77   60/  3/  6   N/A
CALUMET HARBOR   0000            78                N/A
BURNS HARBOR     0000            79   80/ 13/ 15 1013.5F
MICHIGAN CITY    0000            79   40/ 10/ 11   N/A
$$

ABBREVIATIONS USED IN REMARKS
   TC - TEMPERATURE IN CELSIUS
  WCI - WIND CHILL INDEX
   HX - HEAT INDEX
  VSB - VISIBILITY
$$




USA.gov is the U.S. government's official web portal to all federal, state and local government web resources and services.